Tracking 19177 objects as of 24-May-2018
HD Live streaming from Space Station
objects crossing your sky now

COSMOS 614

Track COSMOS 614 now!
10-day predictions
COSMOS 614 is classified as:


NORAD ID: 6965
Int'l Code: 1973-098A
Perigee: 752.8 km
Apogee: 785.4 km
Inclination: 74.1 °
Period: 100.1 minutes
Semi major axis: 7140 km
RCS: 2.1152 m2 (large)
Launch date: December 4, 1973
Source: Commonwealth of Independent States (former USSR) (CIS)
Launch site: PLESETSK MISSILE AND SPACE COMPLEX (PKMTR)
aabbcc
Your satellite tracking list
Your tracking list is empty




NASA's NSSDC Master Catalog

Two Line Element Set (TLE):
1  6965U 73098A   18143.24259991 +.00000012 +00000-0 +12274-4 0  9994
2  6965 074.0583 067.5969 0022814 011.9679 348.2013 14.38954563330653
Source of the keplerian elements: AFSPC